Weather History for Belize, Belize

Change the Weather History Date:

Wednesday, January 8, 2014

  Actual Average Record
Temperature  
Mean Temperature 66 °F -  
Max Temperature 68 °F - 87 °F (2005)
Min Temperature 64 °F - 60 °F (2002)
Cooling Degree Days 1    
Growing Degree Days 16 (Base 50)    
Moisture  
Dew Point 64 °F    
Average Humidity 91    
Maximum Humidity 99    
Minimum Humidity 76    
Precipitation  
Precipitation 0.16 in 0.16 in - ()
Sea Level Pressure  
Sea Level Pressure 30.13 in    
Wind  
Wind Speed 9 mph ()    
Max Wind Speed 15 mph    
Max Gust Speed -    
Visibility 6.1 miles    
Events Rain    
Averages and records for this station are not official NWS values.
T = Trace of Precipitation, MM = Missing Value Source: Averaged Metar Reports

Daily Weather History Graph

Daily Weather History Graph

Search for Another Location

Airport:

Trip Planner

Search our weather history database for the weather conditions in past years. The results will help you decide how hot, cold, wet, or windy it might be!

Date:

Astronomy

Jan. 08, 2014 Rise Set
Actual Time 6:25 AM CST 5:34 PM CST
Civil Twilight 6:02 AM CST 5:57 PM CST
Nautical Twilight 5:35 AM CST 6:24 PM CST
Astronomical Twilight 5:08 AM CST 6:51 PM CST
Moon 12:00 PM CST (1/8) 12:01 AM CST (1/8)
Length of Visible Light 11h 55m
Length of Day
11h 08m
First Quarter, 56% of the Moon is Illuminated
Jan 8
First Quarter
Jan 15
Full
Jan 23
Last Quarter
Jan 30
New
Feb 6
First Quarter

Hourly Weather History & Observations

Time (CST) Temp. Dew Point Humidity Pressure Visibility Wind Dir Wind Speed Gust Speed Precip Events Conditions
12:00 AM 65 °F 59 °F 76% 30.20 in 12 mi NW 15.0 mph - -   Overcast
3:00 AM 65 °F 59 °F 76% 30.15 in 12 mi NW 11.5 mph - -   Overcast
6:00 AM 65 °F 59 °F 76% 30.15 in 12 mi NW 12.7 mph - -   Overcast
6:00 AM 64.4 °F 59.0 °F 83% 30.12 in 6.2 mi NW 12.7 mph - N/A   Mostly Cloudy
7:00 AM 64.4 °F 60.8 °F 88% 30.15 in 6.2 mi NW 11.5 mph - N/A   Mostly Cloudy
8:00 AM 66.2 °F 60.8 °F 83% 30.18 in 6.2 mi NW 10.4 mph - N/A   Mostly Cloudy
9:00 AM 65 °F 62 °F 86% 30.21 in 11 mi WNW 9.2 mph - - Rain Light Rain
9:00 AM 66.2 °F 62.6 °F 88% 30.20 in 6.2 mi WNW 9.2 mph - N/A Rain Light Rain
10:00 AM 64.4 °F 62.6 °F 94% 30.19 in 6.2 mi WNW 6.9 mph - N/A Rain Light Rain
10:30 AM 64.4 °F 62.6 °F 94% 30.19 in 1.2 mi WNW 5.8 mph - N/A Rain Heavy Rain
11:00 AM 66.2 °F 64.4 °F 94% 30.17 in 3.1 mi WNW 8.1 mph - N/A Rain Light Rain
12:00 PM 66 °F 64 °F 93% 30.15 in 4 mi WNW 6.9 mph - - Rain Light Rain
12:00 PM 66.2 °F 64.4 °F 94% 30.14 in 4.3 mi WNW 6.9 mph - N/A Rain Light Rain
12:15 PM 66.2 °F 64.4 °F 94% 30.13 in 1.2 mi West 6.9 mph - N/A Rain Heavy Rain
1:00 PM 66.2 °F 64.4 °F 94% 30.11 in 0.6 mi WNW 6.9 mph - N/A Rain Heavy Rain
1:15 PM 66.2 °F 64.4 °F 94% 30.10 in 1.2 mi WNW 8.1 mph - N/A Rain Rain
1:30 PM 66.2 °F 64.4 °F 94% 30.09 in 1.9 mi WNW 6.9 mph - N/A Rain Rain
2:00 PM 68.0 °F 66.2 °F 94% 30.08 in 6.2 mi WNW 6.9 mph - N/A Rain Light Rain
2:35 PM 68.0 °F 66.2 °F 94% 30.08 in 6.2 mi WNW 8.1 mph - N/A Rain Light Rain
3:00 PM 67 °F 67 °F 99% 30.08 in 5 mi WNW 8.1 mph - - Rain Light Rain
3:00 PM 68.0 °F 66.2 °F 94% 30.07 in 5.0 mi WNW 8.1 mph - N/A Rain Light Rain
4:00 PM 68.0 °F 66.2 °F 94% 30.07 in 6.2 mi West 5.8 mph - N/A   Overcast
5:00 PM 68.0 °F 66.2 °F 94% 30.08 in 6.2 mi WNW 6.9 mph - N/A   Overcast
6:00 PM 68 °F 67 °F 94% 30.09 in 11 mi West 5.8 mph - - Rain Light Rain
6:00 PM 68.0 °F 66.2 °F 94% 30.08 in 6.2 mi West 5.8 mph - N/A Rain Light Rain
9:00 PM 67 °F 66 °F 96% 30.13 in 12 mi West 4.6 mph - -   Partly Cloudy